When you browse on this site, cookies collect data to enhance your experience and personalize the content and advertising you see.
Visit our Privacy Policy to learn more. By continuing to use the site, you agree to this use of cookies and data.
  • En España
  • Lista de países
  • Para 7 días
  • Temperatura del agua
  • El tiempo en el mapa
  • Informadores
  • user-avatar
    Iniciar sesión

    Tiempo cada hora Kasama

    Hoy, 22 Octubre, Martes

    Tiempo Temperatura Precipitaciones Viento Presión Humedad
    00:00 +26°C° 0.1 mm 1 mps 720 mmHg 86%
    01:00 +26°C° 0.1 mm 1 mps 719 mmHg 87%
    02:00 +26°C° 0 mm 1 mps 719 mmHg 89%
    03:00 +25°C° 2.4 mm 1 mps 719 mmHg 90%
    04:00 +25°C° 2.4 mm 2 mps 719 mmHg 91%
    05:00 +25°C° 2.4 mm 3 mps 720 mmHg 92%
    06:00 +25°C° 0.9 mm 2 mps 720 mmHg 90%
    07:00 +26°C° 0.9 mm 2 mps 721 mmHg 89%
    08:00 +26°C° 0.9 mm 2 mps 721 mmHg 87%
    09:00 +26°C° 0.1 mm 2 mps 721 mmHg 86%
    10:00 +27°C° 0.1 mm 2 mps 721 mmHg 85%
    11:00 +27°C° 0.1 mm 2 mps 720 mmHg 84%
    12:00 +29°C° 0 mm 2 mps 720 mmHg 77%
    13:00 +30°C° 0 mm 2 mps 719 mmHg 70%
    14:00 +32°C° 0 mm 1 mps 719 mmHg 63%
    15:00 +31°C° 0.9 mm 1 mps 718 mmHg 69%
    16:00 +30°C° 0.9 mm 1 mps 718 mmHg 74%
    17:00 +29°C° 0.9 mm 1 mps 718 mmHg 80%
    18:00 +28°C° 0 mm 1 mps 719 mmHg 82%
    19:00 +27°C° 0 mm 1 mps 719 mmHg 83%
    20:00 +26°C° 0 mm 1 mps 720 mmHg 85%
    21:00 +26°C° 0 mm 1 mps 720 mmHg 86%
    22:00 +26°C° 0 mm 1 mps 720 mmHg 87%
    23:00 +26°C° 0 mm 1 mps 720 mmHg 87%

    Mañana, 23 Octubre, Miércoles

    Tiempo Temperatura Precipitaciones Viento Presión Humedad
    00:00 +25°C° 0 mm 1 mps 720 mmHg 88%
    01:00 +25°C° 0 mm 1 mps 720 mmHg 88%
    02:00 +25°C° 0 mm 1 mps 719 mmHg 89%
    03:00 +25°C° 0 mm 1 mps 719 mmHg 89%
    04:00 +25°C° 0 mm 1 mps 720 mmHg 90%
    05:00 +25°C° 0 mm 1 mps 720 mmHg 90%
    06:00 +25°C° 0 mm 1 mps 720 mmHg 88%
    07:00 +26°C° 0 mm 1 mps 721 mmHg 85%
    08:00 +27°C° 0 mm 2 mps 721 mmHg 83%
    09:00 +29°C° 0 mm 1 mps 721 mmHg 76%
    10:00 +31°C° 0 mm 1 mps 721 mmHg 69%
    11:00 +33°C° 0 mm 1 mps 721 mmHg 62%
    12:00 +33°C° 0 mm 1 mps 720 mmHg 58%
    13:00 +34°C° 0 mm 1 mps 719 mmHg 55%
    14:00 +33°C° 0 mm 0 mps 719 mmHg 52%
    15:00 +33°C° 0 mm 1 mps 718 mmHg 58%
    16:00 +32°C° 0 mm 1 mps 718 mmHg 64%
    17:00 +31°C° 0 mm 1 mps 718 mmHg 70%
    18:00 +30°C° 0 mm 1 mps 719 mmHg 71%
    19:00 +29°C° 0 mm 1 mps 719 mmHg 72%
    20:00 +28°C° 0 mm 1 mps 720 mmHg 73%
    21:00 +28°C° 0 mm 1 mps 720 mmHg 75%
    22:00 +25°C° 0 mm 0 mps 719 mmHg 78%
    23:00 +25°C° 0 mm 0 mps 719 mmHg 80%

    Pasado mañana, 24 Octubre, Jueves

    Tiempo Temperatura Precipitaciones Viento Presión Humedad
    00:00 +24°C° 0.1 mm 0 mps 719 mmHg 82%
    01:00 +24°C° 0.1 mm 0 mps 719 mmHg 83%
    02:00 +24°C° 0.1 mm 0 mps 719 mmHg 85%
    03:00 +26°C° 0 mm 1 mps 720 mmHg 86%
    04:00 +25°C° 0 mm 1 mps 720 mmHg 88%
    05:00 +25°C° 0 mm 1 mps 720 mmHg 89%
    06:00 +26°C° 0 mm 1 mps 720 mmHg 86%
    07:00 +27°C° 0 mm 1 mps 721 mmHg 82%
    08:00 +29°C° 0 mm 1 mps 722 mmHg 79%
    09:00 +31°C° 0 mm 1 mps 721 mmHg 71%
    10:00 +32°C° 0 mm 1 mps 721 mmHg 64%
    11:00 +34°C° 0 mm 1 mps 721 mmHg 56%
    12:00 +35°C° 0 mm 1 mps 720 mmHg 54%
    13:00 +35°C° 0 mm 1 mps 719 mmHg 51%
    14:00 +36°C° 0 mm 1 mps 719 mmHg 48%
    15:00 +35°C° 0 mm 1 mps 719 mmHg 54%
    16:00 +33°C° 0 mm 1 mps 718 mmHg 60%
    17:00 +32°C° 0 mm 1 mps 718 mmHg 66%
    18:00 +31°C° 0.1 mm 1 mps 719 mmHg 68%
    19:00 +30°C° 0.1 mm 1 mps 719 mmHg 70%
    20:00 +29°C° 0.1 mm 1 mps 720 mmHg 71%
    21:00 +28°C° 0.8 mm 2 mps 720 mmHg 77%
    22:00 +27°C° 0.8 mm 2 mps 720 mmHg 83%
    23:00 +26°C° 0.8 mm 2 mps 720 mmHg 89%

    25 Octubre, Viernes

    Tiempo Temperatura Precipitaciones Viento Presión Humedad
    00:00 +26°C° 0 mm 1 mps 720 mmHg 88%
    01:00 +26°C° 0 mm 1 mps 720 mmHg 87%
    02:00 +24°C° 0 mm 0 mps 720 mmHg 86%
    03:00 +24°C° 0.2 mm 0 mps 720 mmHg 88%
    04:00 +23°C° 0.2 mm 0 mps 720 mmHg 89%
    05:00 +23°C° 0.2 mm 0 mps 720 mmHg 90%
    06:00 +24°C° 0 mm 0 mps 720 mmHg 86%
    07:00 +26°C° 0 mm 0 mps 721 mmHg 83%
    08:00 +27°C° 0 mm 0 mps 722 mmHg 79%
    09:00 +29°C° 0 mm 0 mps 721 mmHg 71%
    10:00 +31°C° 0 mm 0 mps 721 mmHg 63%
    11:00 +34°C° 0 mm 0 mps 721 mmHg 55%
    12:00 +34°C° 0 mm 0 mps 720 mmHg 52%
    13:00 +36°C° 0 mm 1 mps 719 mmHg 49%
    14:00 +36°C° 0 mm 1 mps 718 mmHg 45%
    15:00 +35°C° 0 mm 1 mps 718 mmHg 51%
    16:00 +33°C° 0 mm 1 mps 718 mmHg 57%
    17:00 +32°C° 0 mm 1 mps 718 mmHg 62%
    18:00 +30°C° 0.3 mm 1 mps 719 mmHg 67%
    19:00 +29°C° 0.3 mm 1 mps 719 mmHg 71%
    20:00 +28°C° 0.3 mm 1 mps 720 mmHg 76%
    21:00 +27°C° 0.2 mm 1 mps 720 mmHg 77%
    22:00 +27°C° 0.2 mm 1 mps 720 mmHg 78%
    23:00 +25°C° 0.2 mm 0 mps 720 mmHg 79%

    26 Octubre, Sábado

    Tiempo Temperatura Precipitaciones Viento Presión Humedad
    00:00 +25°C° 0 mm 0 mps 720 mmHg 81%
    01:00 +26°C° 0 mm 1 mps 720 mmHg 82%
    02:00 +26°C° 0 mm 1 mps 719 mmHg 84%
    03:00 +26°C° 0 mm 1 mps 720 mmHg 84%
    04:00 +26°C° 0 mm 1 mps 720 mmHg 85%
    05:00 +26°C° 0 mm 1 mps 720 mmHg 85%
    06:00 +27°C° 0 mm 1 mps 720 mmHg 81%
    07:00 +28°C° 0 mm 1 mps 721 mmHg 76%
    08:00 +30°C° 0 mm 1 mps 721 mmHg 71%
    09:00 +31°C° 0 mm 1 mps 721 mmHg 62%
    10:00 +34°C° 0 mm 2 mps 721 mmHg 52%
    11:00 +35°C° 0 mm 2 mps 721 mmHg 43%
    12:00 +36°C° 0 mm 2 mps 720 mmHg 40%
    13:00 +36°C° 0 mm 2 mps 719 mmHg 38%
    14:00 +36°C° 0 mm 1 mps 719 mmHg 36%
    15:00 +34°C° 0 mm 1 mps 718 mmHg 41%
    16:00 +33°C° 0 mm 1 mps 718 mmHg 46%
    17:00 +32°C° 0 mm 1 mps 718 mmHg 51%
    18:00 +30°C° 0 mm 1 mps 718 mmHg 51%
    19:00 +29°C° 0 mm 1 mps 719 mmHg 52%
    20:00 +28°C° 0 mm 1 mps 719 mmHg 53%
    21:00 +27°C° 0 mm 1 mps 719 mmHg 51%
    22:00 +27°C° 0 mm 1 mps 719 mmHg 50%
    23:00 +27°C° 0 mm 1 mps 719 mmHg 49%

    27 Octubre, Domingo

    Tiempo Temperatura Precipitaciones Viento Presión Humedad
    00:00 +26°C° 0 mm 1 mps 719 mmHg 50%
    01:00 +26°C° 0 mm 1 mps 719 mmHg 50%
    02:00 +25°C° 0 mm 1 mps 718 mmHg 51%
    03:00 +25°C° 0 mm 1 mps 719 mmHg 50%
    04:00 +25°C° 0 mm 1 mps 719 mmHg 48%
    05:00 +24°C° 0 mm 1 mps 719 mmHg 47%
    06:00 +25°C° 0 mm 1 mps 720 mmHg 46%
    07:00 +26°C° 0 mm 1 mps 720 mmHg 46%
    08:00 +27°C° 0 mm 1 mps 721 mmHg 45%
    09:00 +29°C° 0 mm 1 mps 721 mmHg 40%
    10:00 +31°C° 0 mm 2 mps 720 mmHg 36%
    11:00 +34°C° 0 mm 2 mps 720 mmHg 31%
    12:00 +35°C° 0 mm 2 mps 719 mmHg 30%
    13:00 +35°C° 0 mm 2 mps 719 mmHg 29%
    14:00 +36°C° 0 mm 2 mps 718 mmHg 27%
    15:00 +34°C° 0 mm 1 mps 718 mmHg 33%
    16:00 +32°C° 0 mm 1 mps 718 mmHg 38%
    17:00 +31°C° 0 mm 1 mps 718 mmHg 44%
    18:00 +29°C° 0 mm 1 mps 718 mmHg 46%
    19:00 +26°C° 0 mm 0 mps 718 mmHg 48%
    20:00 +25°C° 0 mm 0 mps 718 mmHg 50%
    21:00 +26°C° 0 mm 1 mps 719 mmHg 50%
    22:00 +26°C° 0 mm 1 mps 719 mmHg 51%
    23:00 +26°C° 0 mm 1 mps 719 mmHg 51%

    28 Octubre, Lunes

    Tiempo Temperatura Precipitaciones Viento Presión Humedad
    00:00 +26°C° 0 mm 1 mps 719 mmHg 52%
    01:00 +25°C° 0 mm 1 mps 718 mmHg 54%
    02:00 +25°C° 0 mm 1 mps 718 mmHg 56%
    03:00 +24°C° 0 mm 1 mps 718 mmHg 56%
    04:00 +24°C° 0 mm 1 mps 718 mmHg 56%
    05:00 +22°C° 0 mm 0 mps 719 mmHg 57%
    06:00 +23°C° 0 mm 0 mps 719 mmHg 55%
    07:00 +25°C° 0 mm 0 mps 720 mmHg 53%
    08:00 +27°C° 0 mm 0 mps 720 mmHg 51%
    09:00 +29°C° 0 mm 0 mps 720 mmHg 45%
    10:00 +33°C° 0 mm 1 mps 720 mmHg 39%
    11:00 +35°C° 0 mm 1 mps 720 mmHg 34%
    12:00 +34°C° 0 mm 0 mps 719 mmHg 32%
    13:00 +35°C° 0 mm 0 mps 718 mmHg 31%
    14:00 +35°C° 0 mm 0 mps 718 mmHg 29%
    15:00 +34°C° 0 mm 0 mps 718 mmHg 34%
    16:00 +34°C° 0 mm 1 mps 718 mmHg 40%
    17:00 +32°C° 0 mm 1 mps 717 mmHg 45%
    18:00 +31°C° 0 mm 1 mps 718 mmHg 47%
    19:00 +29°C° 0 mm 1 mps 718 mmHg 49%
    20:00 +28°C° 0 mm 1 mps 719 mmHg 52%
    21:00 +28°C° 0 mm 1 mps 719 mmHg 54%
    22:00 +27°C° 0 mm 1 mps 719 mmHg 56%
    23:00 +26°C° 0 mm 1 mps 719 mmHg 59%
    Mostrar más